| time (UTC) | temp F | wind direction | speed MPH | gust MPH | rain 1hr in | rain 24hr in | rain mn in | humidity % | barometer mb |
| 20260507201514 | 58 | 345 | 4.0 | 6.0 | 0.00 | 0.00 | 0.00 | 42 | 1011.5 |
| 20260507201010 | 57 | 244 | 2.0 | 3.0 | 0.00 | 0.00 | 0.00 | 42 | 1012.0 |
| 20260507200506 | 57 | 311 | 3.0 | 4.0 | 0.00 | 0.00 | 0.00 | 43 | 1011.7 |
| 20260507200002 | 58 | 310 | 3.0 | 3.0 | 0.00 | 0.00 | 0.00 | 44 | 1012.0 |
| 20260507195459 | 57 | 278 | 4.0 | 6.0 | 0.00 | 0.00 | 0.00 | 44 | 1012.2 |
| 20260507194957 | 57 | 325 | 6.0 | 8.0 | 0.00 | 0.00 | 0.00 | 44 | 1012.2 |
| 20260507194453 | 58 | 352 | 2.0 | 3.0 | 0.00 | 0.00 | 0.00 | 46 | 1012.0 |
| 20260507193949 | 59 | 155 | 3.0 | 4.0 | 0.00 | 0.00 | 0.00 | 43 | 1012.0 |
| 20260507193446 | 58 | 301 | 3.0 | 4.0 | 0.00 | 0.00 | 0.00 | 44 | 1011.8 |
| 20260507192943 | 58 | 307 | 6.0 | 8.0 | 0.00 | 0.00 | 0.00 | 43 | 1011.9 |
| 20260507192439 | 59 | 32 | 2.0 | 2.0 | 0.00 | 0.00 | 0.00 | 44 | 1012.2 |
| 20260507191936 | 57 | 319 | 2.0 | 3.0 | 0.00 | 0.00 | 0.00 | 45 | 1012.2 |
| 20260507191432 | 57 | 318 | 11.0 | 15.0 | 0.00 | 0.00 | 0.00 | 44 | 1012.5 |
| 20260507190929 | 57 | 319 | 5.0 | 7.0 | 0.00 | 0.00 | 0.00 | 46 | 1012.4 |
| 20260507190427 | 57 | 238 | 5.0 | 8.0 | 0.00 | 0.00 | 0.00 | 45 | 1012.2 |
| 20260507185925 | 57 | 251 | 3.0 | 3.0 | 0.00 | 0.00 | 0.00 | 44 | 1012.3 |
| 20260507185422 | 57 | 232 | 9.0 | 10.0 | 0.00 | 0.00 | 0.00 | 45 | 1012.5 |
| 20260507184919 | 57 | 181 | 4.0 | 4.0 | 0.00 | 0.00 | 0.00 | 45 | 1012.5 |
| 20260507184417 | 57 | 266 | 8.0 | 10.0 | 0.00 | 0.00 | 0.00 | 45 | 1012.4 |
| 20260507183914 | 57 | 299 | 5.0 | 6.0 | 0.00 | 0.00 | 0.00 | 46 | 1012.6 |
| 20260507183411 | 59 | 269 | 4.0 | 6.0 | 0.00 | 0.00 | 0.00 | 43 | 1012.7 |
| 20260507182908 | 58 | 283 | 4.0 | 6.0 | 0.00 | 0.00 | 0.00 | 47 | 1012.7 |
| 20260507182404 | 58 | 73 | 1.0 | 1.0 | 0.00 | 0.00 | 0.00 | 49 | 1012.8 |
| 20260507181901 | 57 | 255 | 6.0 | 7.0 | 0.00 | 0.00 | 0.00 | 44 | 1012.4 |
| 20260507181356 | 57 | 352 | 3.0 | 4.0 | 0.00 | 0.00 | 0.00 | 44 | 1012.6 |
| 20260507180854 | 59 | 247 | 7.0 | 8.0 | 0.00 | 0.00 | 0.00 | 43 | 1012.7 |
| 20260507180350 | 59 | 210 | 4.0 | 4.0 | 0.00 | 0.00 | 0.00 | 43 | 1012.7 |
| 20260507175846 | 60 | 167 | 2.0 | 3.0 | 0.00 | 0.00 | 0.00 | 43 | 1012.5 |
| 20260507175343 | 60 | 234 | 5.0 | 7.0 | 0.00 | 0.00 | 0.00 | 42 | 1012.7 |
| 20260507174841 | 59 | 205 | 4.0 | 7.0 | 0.00 | 0.00 | 0.00 | 46 | 1012.8 |
| 20260507174338 | 58 | 183 | 4.0 | 4.0 | 0.00 | 0.00 | 0.00 | 44 | 1012.8 |
| 20260507173835 | 59 | 317 | 6.0 | 8.0 | 0.00 | 0.00 | 0.00 | 43 | 1012.8 |
| 20260507173332 | 58 | 224 | 5.0 | 6.0 | 0.00 | 0.00 | 0.00 | 43 | 1012.9 |
| 20260507172828 | 58 | 177 | 6.0 | 9.0 | 0.00 | 0.00 | 0.00 | 44 | 1012.9 |
| 20260507172325 | 58 | 270 | 6.0 | 7.0 | 0.00 | 0.00 | 0.00 | 45 | 1013.1 |
| 20260507171821 | 57 | 218 | 4.0 | 6.0 | 0.00 | 0.00 | 0.00 | 44 | 1013.3 |
| 20260507171318 | 55 | 223 | 2.0 | 3.0 | 0.00 | 0.00 | 0.00 | 49 | 1013.3 |
| 20260507170815 | 60 | 278 | 5.0 | 7.0 | 0.00 | 0.00 | 0.00 | 43 | 1013.5 |
| 20260507170312 | 59 | 99 | 1.0 | 2.0 | 0.00 | 0.00 | 0.00 | 44 | 1013.6 |
| 20260507165807 | 58 | 246 | 2.0 | 2.0 | 0.00 | 0.00 | 0.00 | 43 | 1013.4 |
| 20260507165306 | 58 | 334 | 13.0 | 16.0 | 0.00 | 0.00 | 0.00 | 44 | 1013.5 |
| 20260507164800 | 58 | 262 | 4.0 | 6.0 | 0.00 | 0.00 | 0.00 | 45 | 1013.6 |
| 20260507164257 | 58 | 130 | 2.0 | 2.0 | 0.00 | 0.00 | 0.00 | 45 | 1013.8 |
| 20260507163754 | 58 | 258 | 4.0 | 7.0 | 0.00 | 0.00 | 0.00 | 46 | 1013.7 |
| 20260507163252 | 57 | 52 | 2.0 | 3.0 | 0.00 | 0.00 | 0.00 | 47 | 1013.7 |
| 20260507162747 | 57 | 117 | 4.0 | 6.0 | 0.00 | 0.00 | 0.00 | 45 | 1013.7 |
| 20260507162243 | 57 | 70 | 9.0 | 13.0 | 0.00 | 0.00 | 0.00 | 44 | 1013.7 |
| 20260507161741 | 57 | 30 | 3.0 | 4.0 | 0.00 | 0.00 | 0.00 | 46 | 1013.8 |
| 20260507161237 | 54 | 283 | 6.0 | 7.0 | 0.00 | 0.00 | 0.00 | 49 | 1013.7 |
| 20260507160733 | 56 | 289 | 2.0 | 3.0 | 0.00 | 0.00 | 0.00 | 51 | 1014.0 |
| 20260507160230 | 56 | 288 | 6.0 | 8.0 | 0.00 | 0.00 | 0.00 | 48 | 1014.1 |
| 20260507155726 | 55 | 353 | 4.0 | 4.0 | 0.00 | 0.00 | 0.00 | 48 | 1013.9 |
| 20260507155222 | 55 | 43 | 0.0 | 0.0 | 0.00 | 0.00 | 0.00 | 48 | 1014.2 |
| 20260507154719 | 58 | 263 | 5.0 | 6.0 | 0.00 | 0.00 | 0.00 | 48 | 1014.1 |
| 20260507154216 | 55 | 95 | 1.0 | 1.0 | 0.00 | 0.00 | 0.00 | 53 | 1014.2 |
| 20260507153712 | 56 | 312 | 2.0 | 3.0 | 0.00 | 0.00 | 0.00 | 47 | 1014.2 |
| 20260507153209 | 55 | 334 | 3.0 | 4.0 | 0.00 | 0.00 | 0.00 | 50 | 1014.2 |
| 20260507152706 | 54 | 311 | 4.0 | 7.0 | 0.00 | 0.00 | 0.00 | 50 | 1014.3 |
| 20260507152202 | 54 | 291 | 5.0 | 7.0 | 0.00 | 0.00 | 0.00 | 48 | 1014.1 |
| 20260507151658 | 55 | 295 | 5.0 | 6.0 | 0.00 | 0.00 | 0.00 | 48 | 1014.4 |
| 20260507151154 | 57 | 244 | 2.0 | 4.0 | 0.00 | 0.00 | 0.00 | 49 | 1014.5 |
| 20260507150652 | 56 | 284 | 1.0 | 2.0 | 0.00 | 0.00 | 0.00 | 49 | 1014.5 |
| 20260507150148 | 55 | 32 | 6.0 | 9.0 | 0.00 | 0.00 | 0.00 | 49 | 1014.6 |
| 20260507145644 | 54 | 308 | 9.0 | 10.0 | 0.00 | 0.00 | 0.00 | 50 | 1014.9 |
| 20260507145141 | 56 | 183 | 3.0 | 4.0 | 0.00 | 0.00 | 0.00 | 52 | 1014.9 |
| 20260507144637 | 57 | 217 | 2.0 | 2.0 | 0.00 | 0.00 | 0.00 | 49 | 1015.1 |
| 20260507144136 | 54 | 96 | 1.0 | 1.0 | 0.00 | 0.00 | 0.00 | 51 | 1014.9 |
| 20260507143632 | 54 | 317 | 3.0 | 4.0 | 0.00 | 0.00 | 0.00 | 53 | 1014.7 |
| 20260507143130 | 54 | 87 | 1.0 | 2.0 | 0.00 | 0.00 | 0.00 | 54 | 1015.0 |
| 20260507142625 | 56 | 343 | 4.0 | 6.0 | 0.00 | 0.00 | 0.00 | 51 | 1015.1 |
| 20260507142122 | 53 | 194 | 3.0 | 4.0 | 0.00 | 0.00 | 0.00 | 53 | 1015.3 |
| 20260507141618 | 54 | 204 | 4.0 | 4.0 | 0.00 | 0.00 | 0.00 | 52 | 1015.3 |
| 20260507141115 | 54 | 223 | 3.0 | 4.0 | 0.00 | 0.00 | 0.00 | 55 | 1015.2 |
| 20260507140611 | 52 | 291 | 2.0 | 3.0 | 0.00 | 0.00 | 0.00 | 57 | 1015.4 |
| 20260507140109 | 53 | 18 | 1.0 | 1.0 | 0.00 | 0.00 | 0.00 | 58 | 1015.3 |
| 20260507135606 | 53 | 33 | 2.0 | 3.0 | 0.00 | 0.00 | 0.00 | 58 | 1015.6 |
| 20260507135103 | 53 | 334 | 0.0 | 1.0 | 0.00 | 0.00 | 0.00 | 60 | 1015.6 |
| 20260507134559 | 52 | 46 | 2.0 | 3.0 | 0.00 | 0.00 | 0.00 | 58 | 1015.6 |
| 20260507134055 | 54 | 38 | 1.0 | 2.0 | 0.00 | 0.00 | 0.00 | 58 | 1015.5 |
| 20260507133552 | 53 | 52 | 0.0 | 1.0 | 0.00 | 0.00 | 0.00 | 58 | 1015.6 |
| 20260507133050 | 52 | 167 | 2.0 | 2.0 | 0.00 | 0.00 | 0.00 | 59 | 1015.7 |
| 20260507132546 | 51 | 230 | 2.0 | 2.0 | 0.00 | 0.00 | 0.00 | 61 | 1015.7 |
| 20260507132043 | 50 | 315 | 2.0 | 2.0 | 0.00 | 0.00 | 0.00 | 61 | 1015.6 |
| 20260507131539 | 51 | 25 | 1.0 | 1.0 | 0.00 | 0.00 | 0.00 | 61 | 1015.6 |
| 20260507131037 | 51 | 118 | 0.0 | 1.0 | 0.00 | 0.00 | 0.00 | 61 | 1015.6 |
| 20260507130534 | 50 | 93 | 0.0 | 0.0 | 0.00 | 0.00 | 0.00 | 62 | 1015.5 |
| 20260507130032 | 50 | 144 | 1.0 | 2.0 | 0.00 | 0.00 | 0.00 | 63 | 1015.7 |
| 20260507125530 | 50 | 122 | 1.0 | 1.0 | 0.00 | 0.00 | 0.00 | 63 | 1015.6 |
| 20260507125027 | 49 | 188 | 1.0 | 2.0 | 0.00 | 0.00 | 0.00 | 63 | 1015.6 |
| 20260507124523 | 49 | 67 | 0.0 | 0.0 | 0.00 | 0.00 | 0.00 | 65 | 1015.8 |
| 20260507124021 | 48 | 206 | 3.0 | 3.0 | 0.00 | 0.00 | 0.00 | 65 | 1015.7 |
| 20260507123519 | 49 | 82 | 0.0 | 0.0 | 0.00 | 0.00 | 0.00 | 65 | 1015.9 |
| 20260507123016 | 49 | 134 | 1.0 | 2.0 | 0.00 | 0.00 | 0.00 | 65 | 1015.9 |
| 20260507122516 | 49 | 108 | 0.0 | 0.0 | 0.00 | 0.00 | 0.00 | 66 | 1015.7 |
| 20260507122012 | 47 | 109 | 0.0 | 1.0 | 0.00 | 0.00 | 0.00 | 68 | 1015.8 |
| 20260507121508 | 47 | 150 | 1.0 | 1.0 | 0.00 | 0.00 | 0.00 | 65 | 1015.6 |
| 20260507121004 | 47 | 134 | 1.0 | 2.0 | 0.00 | 0.00 | 0.00 | 67 | 1015.7 |
| 20260507120501 | 47 | 105 | 0.0 | 0.0 | 0.00 | 0.00 | 0.00 | 67 | 1015.8 |
| 20260507115957 | 46 | 105 | 0.0 | 0.0 | 0.00 | 0.00 | 0.00 | 72 | 1015.6 |
| 20260507115454 | 45 | 105 | 0.0 | 0.0 | 0.00 | 0.00 | 0.00 | 72 | 1015.6 |
| 20260507114949 | 46 | 84 | 0.0 | 0.0 | 0.00 | 0.00 | 0.00 | 72 | 1015.7 |
| 20260507114446 | 46 | 82 | 0.0 | 0.0 | 0.00 | 0.00 | 0.00 | 74 | 1015.6 |
| 20260507113943 | 46 | 82 | 0.0 | 0.0 | 0.00 | 0.00 | 0.00 | 72 | 1015.6 |
| 20260507113440 | 45 | 82 | 0.0 | 0.0 | 0.00 | 0.00 | 0.00 | 75 | 1015.5 |
| 20260507112937 | 44 | 82 | 0.0 | 0.0 | 0.00 | 0.00 | 0.00 | 76 | 1015.4 |
| 20260507112435 | 43 | 82 | 0.0 | 0.0 | 0.00 | 0.00 | 0.00 | 77 | 1015.2 |
| 20260507111931 | 42 | 82 | 0.0 | 0.0 | 0.00 | 0.00 | 0.00 | 81 | 1015.4 |
| 20260507111429 | 40 | 82 | 0.0 | 0.0 | 0.00 | 0.00 | 0.00 | 82 | 1015.3 |
| 20260507110925 | 39 | 63 | 0.0 | 0.0 | 0.00 | 0.00 | 0.00 | 85 | 1015.3 |
| 20260507110421 | 38 | 62 | 0.0 | 0.0 | 0.00 | 0.00 | 0.00 | 87 | 1015.3 |
| 20260507105918 | 37 | 62 | 0.0 | 0.0 | 0.00 | 0.00 | 0.00 | 88 | 1015.3 |
| 20260507105415 | 36 | 61 | 0.0 | 0.0 | 0.00 | 0.00 | 0.00 | 88 | 1015.3 |
| 20260507104911 | 36 | 61 | 0.0 | 0.0 | 0.00 | 0.00 | 0.00 | 88 | 1015.2 |
| 20260507104408 | 35 | 61 | 0.0 | 0.0 | 0.00 | 0.00 | 0.00 | 87 | 1015.0 |
| 20260507103904 | 35 | 61 | 0.0 | 0.0 | 0.00 | 0.00 | 0.00 | 87 | 1015.0 |
| 20260507103401 | 35 | 61 | 0.0 | 0.0 | 0.00 | 0.00 | 0.00 | 87 | 1015.2 |
| 20260507102857 | 36 | 61 | 0.0 | 0.0 | 0.00 | 0.00 | 0.00 | 87 | 1015.1 |
| 20260507102355 | 35 | 61 | 0.0 | 0.0 | 0.00 | 0.00 | 0.00 | 87 | 1014.9 |
| 20260507101851 | 35 | 61 | 0.0 | 0.0 | 0.00 | 0.00 | 0.00 | 87 | 1014.9 |
| 20260507101350 | 36 | 61 | 0.0 | 0.0 | 0.00 | 0.00 | 0.00 | 87 | 1015.0 |
| 20260507100848 | 36 | 61 | 0.0 | 0.0 | 0.00 | 0.00 | 0.00 | 87 | 1015.1 |
| 20260507100346 | 36 | 61 | 0.0 | 0.0 | 0.00 | 0.00 | 0.00 | 87 | 1015.1 |
| 20260507095843 | 36 | 61 | 0.0 | 0.0 | 0.00 | 0.00 | 0.00 | 87 | 1015.0 |
| 20260507095340 | 36 | 61 | 0.0 | 0.0 | 0.00 | 0.00 | 0.00 | 87 | 1015.1 |
| 20260507094837 | 36 | 61 | 0.0 | 0.0 | 0.00 | 0.00 | 0.00 | 87 | 1014.9 |
| 20260507094333 | 36 | 61 | 0.0 | 0.0 | 0.00 | 0.00 | 0.00 | 86 | 1014.9 |
| 20260507093831 | 36 | 61 | 0.0 | 0.0 | 0.00 | 0.00 | 0.00 | 86 | 1014.9 |
| 20260507093329 | 36 | 61 | 0.0 | 0.0 | 0.00 | 0.00 | 0.00 | 86 | 1015.0 |
| 20260507092827 | 36 | 61 | 0.0 | 0.0 | 0.00 | 0.00 | 0.00 | 86 | 1015.0 |
| 20260507092323 | 37 | 61 | 0.0 | 0.0 | 0.00 | 0.00 | 0.00 | 86 | 1014.9 |
| 20260507091819 | 37 | 61 | 0.0 | 0.0 | 0.00 | 0.00 | 0.00 | 85 | 1015.3 |
| 20260507091316 | 37 | 61 | 0.0 | 0.0 | 0.00 | 0.00 | 0.00 | 86 | 1015.2 |
| 20260507090812 | 37 | 61 | 0.0 | 0.0 | 0.00 | 0.00 | 0.00 | 86 | 1015.2 |
| 20260507090308 | 37 | 61 | 0.0 | 0.0 | 0.00 | 0.00 | 0.00 | 87 | 1015.2 |
| 20260507085805 | 37 | 61 | 0.0 | 0.0 | 0.00 | 0.00 | 0.00 | 87 | 1015.1 |
| 20260507085306 | 37 | 61 | 0.0 | 0.0 | 0.00 | 0.00 | 0.00 | 87 | 1015.0 |
| 20260507084800 | 37 | 61 | 0.0 | 0.0 | 0.00 | 0.00 | 0.00 | 86 | 1014.9 |
| 20260507084256 | 37 | 61 | 0.0 | 0.0 | 0.00 | 0.00 | 0.00 | 85 | 1015.0 |
| 20260507083754 | 37 | 61 | 0.0 | 0.0 | 0.00 | 0.00 | 0.00 | 85 | 1015.1 |
| 20260507083250 | 37 | 62 | 0.0 | 0.0 | 0.00 | 0.00 | 0.00 | 85 | 1015.0 |
| 20260507082746 | 37 | 61 | 0.0 | 0.0 | 0.00 | 0.00 | 0.00 | 85 | 1015.0 |
| 20260507082242 | 38 | 61 | 0.0 | 0.0 | 0.00 | 0.00 | 0.00 | 85 | 1015.2 |
| 20260507081739 | 38 | 62 | 0.0 | 0.0 | 0.00 | 0.00 | 0.00 | 84 | 1015.0 |
| 20260507081235 | 38 | 62 | 0.0 | 0.0 | 0.00 | 0.00 | 0.00 | 84 | 1015.0 |
| 20260507080732 | 38 | 61 | 0.0 | 0.0 | 0.00 | 0.00 | 0.00 | 84 | 1015.0 |
| 20260507080228 | 38 | 61 | 0.0 | 0.0 | 0.00 | 0.00 | 0.00 | 84 | 1014.9 |
| 20260507075723 | 38 | 61 | 0.0 | 0.0 | 0.00 | 0.00 | 0.00 | 83 | 1015.1 |
| 20260507075220 | 38 | 62 | 0.0 | 0.0 | 0.00 | 0.00 | 0.00 | 82 | 1015.1 |
| 20260507074716 | 39 | 62 | 0.0 | 0.0 | 0.00 | 0.00 | 0.00 | 82 | 1015.2 |
| 20260507074215 | 39 | 62 | 0.0 | 0.0 | 0.00 | 0.00 | 0.00 | 81 | 1015.2 |
| 20260507073710 | 39 | 62 | 0.0 | 0.0 | 0.00 | 0.00 | 0.00 | 80 | 1015.2 |
| 20260507073201 | 40 | 62 | 0.0 | 0.0 | 0.00 | 0.00 | 0.00 | 79 | 1015.3 |
| 20260507072659 | 40 | 62 | 0.0 | 0.0 | 0.00 | 0.00 | 0.00 | 79 | 1015.1 |
| 20260507072156 | 41 | 62 | 0.0 | 0.0 | 0.00 | 0.00 | 0.00 | 78 | 1015.0 |
| 20260507071654 | 40 | 61 | 0.0 | 0.0 | 0.00 | 0.00 | 0.00 | 77 | 1015.1 |
| 20260507071149 | 41 | 61 | 0.0 | 0.0 | 0.00 | 0.00 | 0.00 | 79 | 1015.2 |
| 20260507070647 | 41 | 62 | 0.0 | 0.0 | 0.00 | 0.00 | 0.00 | 79 | 1015.2 |
| 20260507070144 | 41 | 62 | 0.0 | 0.0 | 0.00 | 0.00 | 0.00 | 79 | 1015.1 |
| 20260507065640 | 41 | 63 | 0.0 | 0.0 | 0.00 | 0.00 | 0.00 | 78 | 1015.1 |
| 20260507065137 | 41 | 63 | 0.0 | 0.0 | 0.00 | 0.00 | 0.00 | 79 | 1015.2 |
| 20260507064635 | 42 | 63 | 0.0 | 0.0 | 0.00 | 0.00 | 0.00 | 79 | 1015.1 |
| 20260507064133 | 42 | 63 | 0.0 | 0.0 | 0.00 | 0.00 | 0.00 | 79 | 1015.2 |
| 20260507063631 | 43 | 63 | 0.0 | 0.0 | 0.00 | 0.00 | 0.00 | 78 | 1015.3 |
| 20260507063127 | 43 | 63 | 0.0 | 0.0 | 0.00 | 0.00 | 0.00 | 77 | 1015.4 |
| 20260507062624 | 44 | 63 | 0.0 | 0.0 | 0.00 | 0.00 | 0.00 | 76 | 1015.1 |
| 20260507062122 | 44 | 63 | 0.0 | 0.0 | 0.00 | 0.00 | 0.00 | 73 | 1015.2 |
| 20260507061619 | 44 | 63 | 0.0 | 0.0 | 0.00 | 0.00 | 0.00 | 70 | 1015.2 |
| 20260507061117 | 44 | 63 | 0.0 | 0.0 | 0.00 | 0.00 | 0.00 | 71 | 1015.3 |
| 20260507060615 | 45 | 63 | 0.0 | 0.0 | 0.00 | 0.00 | 0.00 | 73 | 1015.2 |
| 20260507060111 | 45 | 52 | 0.0 | 1.0 | 0.00 | 0.00 | 0.00 | 71 | 1015.3 |
| 20260507055607 | 45 | 71 | 0.0 | 0.0 | 0.00 | 0.00 | 0.00 | 68 | 1015.5 |
| 20260507055103 | 46 | 104 | 1.0 | 1.0 | 0.00 | 0.00 | 0.00 | 67 | 1015.7 |
| 20260507054559 | 46 | 57 | 0.0 | 0.0 | 0.00 | 0.00 | 0.00 | 65 | 1015.6 |
| 20260507054056 | 46 | 25 | 0.0 | 1.0 | 0.00 | 0.00 | 0.00 | 66 | 1015.8 |
| 20260507053554 | 46 | 278 | 1.0 | 2.0 | 0.00 | 0.00 | 0.00 | 66 | 1015.8 |
| 20260507053053 | 46 | 358 | 2.0 | 2.0 | 0.00 | 0.00 | 0.00 | 66 | 1015.8 |
| 20260507052550 | 46 | 338 | 1.0 | 1.0 | 0.00 | 0.00 | 0.00 | 67 | 1015.8 |
| 20260507052046 | 46 | 10 | 1.0 | 1.0 | 0.00 | 0.00 | 0.00 | 66 | 1016.0 |
| 20260507051544 | 46 | 44 | 0.0 | 0.0 | 0.00 | 0.00 | 0.00 | 67 | 1015.9 |
| 20260507051041 | 46 | 31 | 0.0 | 0.0 | 0.00 | 0.00 | 0.00 | 67 | 1015.8 |
| 20260507050537 | 46 | 32 | 0.0 | 0.0 | 0.00 | 0.00 | 0.00 | 70 | 1015.7 |
| 20260507050034 | 46 | 31 | 0.0 | 0.0 | 0.00 | 0.00 | 0.00 | 70 | 1015.9 |
| 20260507045530 | 46 | 23 | 0.0 | 0.0 | 0.00 | 0.00 | 0.00 | 70 | 1015.9 |
| 20260507045028 | 46 | 58 | 0.0 | 0.0 | 0.00 | 0.00 | 0.00 | 66 | 1015.8 |
| 20260507044524 | 46 | 33 | 0.0 | 0.0 | 0.00 | 0.00 | 0.00 | 70 | 1015.8 |
| 20260507044021 | 46 | 39 | 0.0 | 0.0 | 0.00 | 0.00 | 0.00 | 68 | 1015.8 |
| 20260507043517 | 46 | 56 | 0.0 | 0.0 | 0.00 | 0.00 | 0.00 | 76 | 1015.7 |
| 20260507043015 | 46 | 57 | 0.0 | 0.0 | 0.00 | 0.00 | 0.00 | 73 | 1015.7 |
| 20260507042510 | 46 | 57 | 0.0 | 0.0 | 0.00 | 0.00 | 0.00 | 73 | 1015.8 |
| 20260507042006 | 46 | 57 | 0.0 | 0.0 | 0.00 | 0.00 | 0.00 | 73 | 1015.8 |
| 20260507041503 | 46 | 61 | 0.0 | 0.0 | 0.00 | 0.00 | 0.00 | 72 | 1015.9 |
| 20260507041000 | 46 | 61 | 0.0 | 0.0 | 0.00 | 0.00 | 0.00 | 72 | 1015.9 |
| 20260507040455 | 46 | 61 | 0.0 | 0.0 | 0.00 | 0.00 | 0.00 | 72 | 1015.8 |
| 20260507035951 | 46 | 61 | 0.0 | 0.0 | 0.00 | 0.68 | 0.68 | 72 | 1015.7 |
| 20260507035448 | 46 | 61 | 0.0 | 0.0 | 0.00 | 0.68 | 0.68 | 76 | 1015.5 |
| 20260507034945 | 46 | 61 | 0.0 | 0.0 | 0.00 | 0.68 | 0.68 | 75 | 1015.7 |
| 20260507034442 | 46 | 61 | 0.0 | 0.0 | 0.00 | 0.68 | 0.68 | 69 | 1015.7 |
| 20260507033940 | 47 | 61 | 0.0 | 0.0 | 0.00 | 0.68 | 0.68 | 72 | 1015.7 |
| 20260507033437 | 46 | 61 | 0.0 | 0.0 | 0.00 | 0.68 | 0.68 | 71 | 1015.7 |
| 20260507032934 | 47 | 61 | 0.0 | 0.0 | 0.00 | 0.68 | 0.68 | 73 | 1015.4 |
| 20260507032432 | 47 | 62 | 0.0 | 0.0 | 0.00 | 0.68 | 0.68 | 66 | 1015.5 |
| 20260507031927 | 47 | 53 | 0.0 | 0.0 | 0.00 | 0.68 | 0.68 | 69 | 1015.6 |
| 20260507031426 | 47 | 39 | 0.0 | 0.0 | 0.00 | 0.68 | 0.68 | 68 | 1015.4 |
| 20260507030921 | 47 | 26 | 0.0 | 0.0 | 0.00 | 0.68 | 0.68 | 68 | 1015.4 |
| 20260507030418 | 47 | 24 | 0.0 | 0.0 | 0.00 | 0.68 | 0.68 | 69 | 1015.4 |
| 20260507025915 | 47 | 43 | 0.0 | 1.0 | 0.00 | 0.68 | 0.68 | 68 | 1015.2 |
| 20260507025413 | 47 | 93 | 0.0 | 0.0 | 0.00 | 0.68 | 0.68 | 70 | 1015.4 |
| 20260507024910 | 47 | 93 | 1.0 | 1.0 | 0.00 | 0.68 | 0.68 | 69 | 1015.3 |
| 20260507024407 | 48 | 44 | 0.0 | 1.0 | 0.00 | 0.68 | 0.68 | 72 | 1015.2 |
| 20260507023903 | 48 | 54 | 0.0 | 0.0 | 0.00 | 0.68 | 0.68 | 70 | 1015.2 |
| 20260507023400 | 48 | 55 | 0.0 | 0.0 | 0.00 | 0.68 | 0.68 | 69 | 1015.3 |
| 20260507022857 | 48 | 40 | 0.0 | 0.0 | 0.00 | 0.68 | 0.68 | 69 | 1015.2 |
| 20260507022354 | 48 | 39 | 0.0 | 0.0 | 0.00 | 0.68 | 0.68 | 67 | 1015.2 |
| 20260507021849 | 48 | 58 | 0.0 | 0.0 | 0.00 | 0.68 | 0.68 | 67 | 1015.2 |
| 20260507021345 | 48 | 52 | 0.0 | 0.0 | 0.00 | 0.68 | 0.68 | 65 | 1015.0 |
| 20260507020843 | 48 | 4 | 1.0 | 1.0 | 0.00 | 0.68 | 0.68 | 64 | 1014.7 |
| 20260507020339 | 48 | 48 | 0.0 | 0.0 | 0.00 | 0.68 | 0.68 | 65 | 1014.7 |
| 20260507015836 | 49 | 313 | 2.0 | 2.0 | 0.00 | 0.68 | 0.68 | 63 | 1014.6 |
| 20260507015334 | 49 | 281 | 2.0 | 2.0 | 0.00 | 0.68 | 0.68 | 64 | 1014.9 |
| 20260507014831 | 49 | 50 | 0.0 | 0.0 | 0.00 | 0.68 | 0.68 | 65 | 1014.4 |
| 20260507014327 | 49 | 96 | 0.0 | 0.0 | 0.00 | 0.68 | 0.68 | 65 | 1014.5 |
| 20260507013824 | 49 | 46 | 1.0 | 1.0 | 0.00 | 0.68 | 0.68 | 66 | 1014.3 |
| 20260507013321 | 49 | 34 | 0.0 | 1.0 | 0.00 | 0.68 | 0.68 | 66 | 1014.4 |
| 20260507012819 | 49 | 21 | 1.0 | 1.0 | 0.00 | 0.68 | 0.68 | 63 | 1014.5 |
| 20260507012314 | 49 | 87 | 0.0 | 0.0 | 0.00 | 0.68 | 0.68 | 64 | 1014.4 |
| 20260507011811 | 49 | 70 | 0.0 | 0.0 | 0.00 | 0.68 | 0.68 | 64 | 1014.5 |
| 20260507011308 | 49 | 321 | 1.0 | 1.0 | 0.00 | 0.68 | 0.68 | 65 | 1014.5 |
| 20260507010808 | 49 | 57 | 0.0 | 0.0 | 0.00 | 0.68 | 0.68 | 69 | 1014.9 |
| 20260507010304 | 49 | 51 | 0.0 | 0.0 | 0.00 | 0.68 | 0.68 | 71 | 1014.6 |
| 20260507005801 | 49 | 51 | 0.0 | 0.0 | 0.00 | 0.68 | 0.68 | 70 | 1014.7 |
| 20260507005257 | 50 | 64 | 0.0 | 0.0 | 0.00 | 0.68 | 0.68 | 68 | 1014.9 |
| 20260507004754 | 50 | 87 | 0.0 | 0.0 | 0.00 | 0.68 | 0.68 | 70 | 1015.1 |
| 20260507004252 | 50 | 70 | 0.0 | 0.0 | 0.00 | 0.68 | 0.68 | 68 | 1015.2 |
| 20260507003748 | 50 | 1 | 0.0 | 1.0 | 0.00 | 0.68 | 0.68 | 65 | 1014.7 |
| 20260507003243 | 50 | 26 | 0.0 | 0.0 | 0.00 | 0.68 | 0.68 | 65 | 1015.0 |
| 20260507002740 | 51 | 122 | 1.0 | 2.0 | 0.00 | 0.68 | 0.68 | 65 | 1015.3 |
| 20260507002236 | 51 | 26 | 0.0 | 0.0 | 0.00 | 0.68 | 0.68 | 66 | 1014.7 |
| 20260507001733 | 51 | 233 | 2.0 | 3.0 | 0.00 | 0.68 | 0.68 | 66 | 1014.9 |
| 20260507001230 | 51 | 33 | 0.0 | 0.0 | 0.00 | 0.68 | 0.68 | 67 | 1014.7 |
| 20260507000726 | 51 | 27 | 0.0 | 1.0 | 0.00 | 0.68 | 0.68 | 68 | 1014.6 |
| 20260507000222 | 51 | 25 | 0.0 | 1.0 | 0.00 | 0.68 | 0.68 | 68 | 1014.7 |
| 20260506235719 | 51 | 21 | 1.0 | 1.0 | 0.00 | 0.68 | 0.68 | 67 | 1014.7 |
| 20260506235214 | 51 | 344 | 1.0 | 2.0 | 0.00 | 0.68 | 0.68 | 68 | 1014.5 |
| 20260506234711 | 52 | 29 | 0.0 | 0.0 | 0.00 | 0.68 | 0.68 | 68 | 1014.5 |
| 20260506234209 | 52 | 42 | 0.0 | 1.0 | 0.00 | 0.68 | 0.68 | 67 | 1014.2 |
| 20260506233707 | 52 | 283 | 2.0 | 3.0 | 0.00 | 0.68 | 0.68 | 67 | 1014.2 |
| 20260506233203 | 52 | 20 | 0.0 | 0.0 | 0.00 | 0.68 | 0.68 | 69 | 1014.3 |
| 20260506232659 | 52 | 3 | 1.0 | 1.0 | 0.00 | 0.68 | 0.68 | 68 | 1014.2 |
| 20260506232154 | 52 | 333 | 1.0 | 1.0 | 0.00 | 0.68 | 0.68 | 68 | 1014.0 |
| 20260506231652 | 52 | 43 | 0.0 | 0.0 | 0.00 | 0.68 | 0.68 | 70 | 1014.0 |
| 20260506231150 | 52 | 341 | 1.0 | 1.0 | 0.00 | 0.68 | 0.68 | 70 | 1014.1 |
| 20260506230647 | 53 | 24 | 0.0 | 0.0 | 0.00 | 0.68 | 0.68 | 70 | 1013.8 |
| 20260506230143 | 52 | 23 | 0.0 | 0.0 | 0.00 | 0.68 | 0.68 | 68 | 1013.8 |
| 20260506225640 | 53 | 341 | 1.0 | 1.0 | 0.00 | 0.68 | 0.68 | 68 | 1013.7 |
| 20260506225137 | 53 | 294 | 2.0 | 2.0 | 0.00 | 0.68 | 0.68 | 69 | 1013.6 |
| 20260506224633 | 52 | 13 | 0.0 | 0.0 | 0.00 | 0.68 | 0.68 | 72 | 1013.5 |
| 20260506224130 | 52 | 18 | 0.0 | 1.0 | 0.00 | 0.68 | 0.68 | 70 | 1013.7 |
| 20260506223626 | 52 | 22 | 1.0 | 1.0 | 0.00 | 0.68 | 0.68 | 71 | 1013.5 |
| 20260506223122 | 52 | 32 | 1.0 | 1.0 | 0.00 | 0.68 | 0.68 | 70 | 1013.7 |
| 20260506222620 | 52 | 18 | 0.0 | 1.0 | 0.00 | 0.68 | 0.68 | 72 | 1013.5 |
| 20260506222116 | 52 | 2 | 1.0 | 2.0 | 0.00 | 0.68 | 0.68 | 71 | 1013.7 |
| 20260506221614 | 52 | 343 | 1.0 | 1.0 | 0.00 | 0.68 | 0.68 | 71 | 1013.7 |
| 20260506221111 | 52 | 248 | 1.0 | 1.0 | 0.00 | 0.68 | 0.68 | 70 | 1013.4 |
| 20260506220607 | 53 | 345 | 1.0 | 1.0 | 0.00 | 0.68 | 0.68 | 70 | 1013.6 |
| 20260506215600 | 53 | 10 | 0.0 | 1.0 | 0.00 | 0.68 | 0.68 | 70 | 1013.4 |
| 20260506215055 | 53 | 307 | 2.0 | 2.0 | 0.00 | 0.68 | 0.68 | 72 | 1013.5 |
| 20260506214552 | 53 | 4 | 1.0 | 1.0 | 0.00 | 0.68 | 0.68 | 74 | 1013.3 |
| 20260506214050 | 52 | 231 | 1.0 | 2.0 | 0.00 | 0.68 | 0.68 | 75 | 1013.5 |
| 20260506213548 | 52 | 354 | 1.0 | 1.0 | 0.00 | 0.68 | 0.68 | 74 | 1013.3 |
| 20260506213045 | 52 | 58 | 0.0 | 0.0 | 0.00 | 0.68 | 0.68 | 75 | 1013.0 |
| 20260506212541 | 52 | 46 | 0.0 | 0.0 | 0.00 | 0.68 | 0.68 | 75 | 1013.4 |
| 20260506212036 | 52 | 13 | 1.0 | 1.0 | 0.00 | 0.68 | 0.68 | 74 | 1013.1 |
| 20260506211532 | 52 | 28 | 0.0 | 0.0 | 0.00 | 0.68 | 0.68 | 74 | 1012.8 |
| 20260506211030 | 52 | 219 | 1.0 | 2.0 | 0.00 | 0.68 | 0.68 | 73 | 1012.8 |
| 20260506210526 | 52 | 5 | 0.0 | 0.0 | 0.00 | 0.68 | 0.68 | 74 | 1012.9 |
| 20260506210023 | 52 | 355 | 1.0 | 1.0 | 0.00 | 0.68 | 0.68 | 74 | 1012.8 |
| 20260506205520 | 52 | 29 | 2.0 | 2.0 | 0.00 | 0.68 | 0.68 | 75 | 1013.0 |
| 20260506205015 | 51 | 272 | 3.0 | 4.0 | 0.00 | 0.68 | 0.68 | 75 | 1012.8 |
| 20260506204514 | 52 | 22 | 2.0 | 2.0 | 0.00 | 0.68 | 0.68 | 76 | 1012.7 |
| 20260506204010 | 52 | 344 | 4.0 | 4.0 | 0.00 | 0.68 | 0.68 | 74 | 1012.6 |
| 20260506203508 | 52 | 333 | 1.0 | 3.0 | 0.00 | 0.68 | 0.68 | 75 | 1012.6 |
| 20260506203004 | 53 | 348 | 5.0 | 7.0 | 0.00 | 0.68 | 0.68 | 75 | 1012.4 |
| 20260506202502 | 53 | 265 | 3.0 | 4.0 | 0.00 | 0.68 | 0.68 | 75 | 1012.5 |
| 20260506201958 | 52 | 290 | 2.0 | 3.0 | 0.00 | 0.68 | 0.68 | 76 | 1012.5 |